Simultaneous Nadir Overpasses (SNOs) Predictions

Prediction of SNOs between AQUA and NPP Satellite Orbit:

Table of predicted SNOs for the next 14.0 days since TLE Epoch: 4/20/2015
Index Date (AQUA) Time (AQUA) Lat,Lon (AQUA) SZA (AQUA ) Date (NPP) Time (NPP) Lat,Lon (NPP) SZA (NPP ) Distance(km) Time Diff (sec)
1 04/20/2015 03:58:52 61.50, -20.30 100.87 04/20/2015 03:58:58 61.60, -20.81 100.93 29.33 6
2 04/20/2015 04:42:05 -80.56,-166.82 100.25 04/20/2015 04:43:19 -80.26,-165.89 100.42 38.36 74
3 04/22/2015 19:24:10 -67.62, -66.56 86.07 04/22/2015 19:23:16 -67.62, -66.56 86.02 0.31 54
4 04/22/2015 20:12:27 71.35, 106.13 90.11 04/22/2015 20:12:49 71.36, 106.18 90.07 1.98 22
5 04/25/2015 11:40:22 -68.54, 50.40 87.89 04/25/2015 11:39:49 -68.54, 50.39 87.85 0.75 33
6 04/25/2015 12:28:41 72.13,-136.66 88.40 04/25/2015 12:29:24 72.14,-136.60 88.34 2.03 43
7 04/28/2015 03:56:33 -69.45, 167.45 89.67 04/28/2015 03:56:22 -69.45, 167.41 89.65 1.86 11
8 04/28/2015 04:44:55 72.85, -19.45 86.78 04/28/2015 04:46:00 72.86, -19.39 86.70 1.93 65
9 04/30/2015 19:24:09 67.27, 113.07 91.73 04/30/2015 19:23:05 67.27, 113.07 91.80 0.07 64
10 04/30/2015 20:12:27 -71.16, -74.17 92.27 04/30/2015 20:12:38 -71.17, -74.11 92.29 2.00 11
11 05/03/2015 11:40:18 68.18,-130.01 90.02 05/03/2015 11:39:38 68.17,-130.05 90.08 2.08 40




NCC Satellite Simultaneous Nad
